Tracking 21076 objects as of 7-Aug-2020
HD Live streaming from Space Station
objects crossing your sky now

ARIANE 44LP DEB

Track ARIANE 44LP DEB now!


NORAD ID: 33545
Int'l Code: 1988-109U
Perigee: 403.3 km
Apogee: 34,477.2 km
Inclination: 6.5 °
Period: 609.4 minutes
Semi major axis: 23811 km
RCS: 0.1258 m2 (medium)
Launch date: December 11, 1988
Source: France (FR)
Launch site: FRENCH GUIANA (FRGUI)

Note: This is SATELLITE DEBRIS
aabbcc
Your satellite tracking list
Your tracking list is empty




NASA's NSSDC Master Catalog

Two Line Element Set (TLE):
1 33545U 88109U   20219.40257965 -.00000020  00000-0  25071-3 0  9999
2 33545   6.5108 239.4545 7155017  76.6917 348.2108  2.36281429153840
Source of the keplerian elements: AFSPC